[[{"header":{"parameterUnit":"m.s-1","parameterCategory":1,"la1":30.2991,"la2":30.254,"lo1":-89.0895,"lo2":-89.0444,"dy":0.0017,"dx":0.0017,"nx":28,"ny":28,"refTime":"2025-04-11T03:00:00:Z","depth":0,"parameterNumber":2,"parameterNumberName":"U-component_of_WINDS"},"data":[0,0,0,0,0,0,0,0,0,0,0,0,0,0,0,0,0,0,0,0,0,0,0,0,0,0,0,0,0,0,0,0,0,0,0,0,0,0,0,0,0,0,0,0,0,0,0,0,0,0,0,0,0,0,0,0,0,0,2.3316,2.3316,0,2.3345,2.3345,2.3346,2.3384,2.3385,2.3385,2.3386,2.3415,2.3415,2.3416,0,0,0,0,0,0,0,0,0,0,0,0,0,2.3295,2.3295,2.3316,2.3316,2.3317,2.3345,2.3345,2.3346,2.3384,2.3385,2.3385,2.3386,2.3415,2.3415,2.3416,0,0,0,0,0,0,0,0,0,0,0,0,0,2.3312,2.3295,2.3316,2.3339,2.3341,2.3345,2.3345,2.3346,2.3384,2.3385,2.3385,2.3386,2.3415,2.3415,2.3416,2.3399,0,0,2.3417,2.3417,0,0,0,0,0,0,0,0,2.3311,2.3313,2.3335,2.3337,2.334,2.3362,2.3349,2.3363,2.3383,2.3368,2.3386,2.3387,2.3397,2.3399,2.3402,2.34,2.3401,2.3417,2.3417,2.3417,2.3417,0,0,0,0,0,0,0,2.331,2.3312,2.3327,2.3336,2.3338,2.3349,2.3352,2.3352,2.3376,2.3369,2.3372,2.3375,2.3398,2.3401,2.3403,2.3402,2.3417,2.3417,2.3417,2.3417,2.339,2.3389,0,0,0,0,0,0,2.3305,2.331,2.3326,2.3328,2.3328,2.3348,2.3352,2.3354,2.3377,2.3381,2.3374,2.3376,2.3401,2.3402,2.3404,2.3387,2.3417,2.3417,2.3417,2.339,2.3389,2.3388,0,0,0,0,0,0,2.3304,2.3306,2.3325,2.332,2.3323,2.3347,2.3349,2.3354,2.3357,2.338,2.3385,2.3373,2.3401,2.3404,2.34,2.3388,2.3417,2.3418,2.3392,2.339,2.3389,2.3351,0,0,0,0,0,0,2.3304,2.3306,2.3299,2.332,2.3323,2.332,2.3348,2.3354,2.3358,2.3361,2.338,2.3384,2.3402,2.34,2.34,2.3389,2.3418,2.3393,2.3391,2.3389,2.3353,2.3348,2.3344,0,0,0,0,0,2.3303,2.3286,2.3298,2.33,2.3315,2.3319,2.3322,2.3342,2.3356,2.335,2.3366,2.3384,2.339,2.3399,2.34,2.3389,2.3393,2.3391,2.3389,2.3355,2.3349,2.3344,0,0,0,0,0,0,2.3262,2.3289,2.3303,2.3293,2.3303,2.3326,2.3318,2.3335,2.3342,2.3345,2.3371,2.3375,2.3369,2.3379,2.3388,2.3375,2.3394,2.3393,2.3368,2.3362,2.3358,2.3355,2.3418,0,0,0,0,0,2.3253,2.3253,2.3277,2.3266,2.3271,2.3294,2.3296,2.3312,2.3324,2.3328,2.3343,2.3355,2.3359,2.3362,2.3367,2.3355,2.3361,2.3348,2.3344,2.334,2.3338,2.3334,2.3329,2.3382,2.3382,2.3382,0,0,2.3232,2.3247,2.3245,2.3258,2.3268,2.3269,2.3297,2.3296,2.3297,2.3328,2.3326,2.3338,2.3352,2.3345,2.3343,2.3353,2.3325,2.3337,2.3334,2.3334,2.3331,2.3326,2.3322,2.338,2.338,2.3381,0,0,2.3194,2.3205,2.3198,2.3208,2.3224,2.3239,2.3238,2.3258,2.3267,2.3266,2.3289,2.3292,2.3298,2.3308,2.3314,2.3284,2.3301,2.3285,2.326,2.3256,2.3252,2.3249,2.3238,2.3234,2.3283,2.3283,2.3283,0,2.3166,2.3168,2.3192,2.319,2.3196,2.3225,2.3218,2.3227,2.3243,2.3247,2.3259,2.3269,2.3281,2.3277,2.327,2.3274,2.3273,2.3282,2.3251,2.3248,2.3245,2.3235,2.3231,2.3281,2.3281,2.3281,2.3281,0,2.3133,2.3134,2.3127,2.3143,2.3148,2.3143,2.3167,2.3169,2.3185,2.32,2.3199,2.3215,2.3225,2.3225,2.324,2.3224,2.323,2.3246,2.3267,2.3237,2.3229,2.3225,2.3278,2.3278,2.3279,2.3279,0,0,2.3069,2.31,2.3097,2.3105,2.3126,2.3127,2.3125,2.3136,2.3137,2.3149,2.3148,2.3155,2.317,2.3177,2.3194,2.319,2.3166,2.3207,2.3208,2.3199,2.3151,2.3138,2.3134,2.3178,2.3178,2.3177,2.315,0,2.3035,2.3033,2.3056,2.3048,2.305,2.3079,2.3078,2.309,2.3105,2.3109,2.3126,2.313,2.315,2.3155,2.3153,2.3169,2.3157,2.3172,2.3179,2.3178,2.3173,2.3129,2.3116,2.3089,2.3146,2.3146,2.3145,0,2.2995,2.3005,2.2997,2.302,2.3022,2.302,2.3032,2.3036,2.3052,2.3063,2.3072,2.3092,2.3092,2.3113,2.3114,2.3124,2.3129,2.3138,2.3137,2.3138,2.316,2.3129,2.308,2.3076,2.314,2.3141,2.3141,0,2.295,2.2961,2.2958,2.2965,2.2991,2.2989,2.3,2.3017,2.3023,2.3034,2.3038,2.3049,2.3054,2.3063,2.3086,2.3098,2.3085,2.3107,2.3095,2.3094,2.309,2.309,2.3041,2.3093,2.3093,2.3093,2.3093,0,2.2909,2.2903,2.2938,2.2937,2.2932,2.2959,2.2953,2.2967,2.2983,2.2985,2.3011,2.3012,2.3043,2.3048,2.3066,2.3065,2.3068,2.3077,2.3082,2.3074,2.3073,2.3077,2.308,2.3092,2.3092,2.3093,2.3093,0,2.2857,2.288,2.2879,2.2905,2.2912,2.2907,2.2929,2.2929,2.2947,2.2949,2.2951,2.2978,2.2986,2.301,2.3023,2.3036,2.303,2.3039,2.3024,2.3027,2.3014,2.3015,2.2966,2.2962,2.3016,2.3016,2.3015,0,2.2829,2.2826,2.2852,2.2856,2.2866,2.2871,2.2877,2.2904,2.2909,2.2929,2.2927,2.2937,2.2946,2.2958,2.2979,2.299,2.3,2.2982,2.3001,2.2995,2.3,2.2999,2.3,2.2977,2.2976,2.2976,2.2975,0,2.2778,2.2791,2.2798,2.2811,2.2817,2.2828,2.2841,2.2842,2.2873,2.2878,2.2886,2.2894,2.2909,2.2919,2.2934,2.2946,2.2966,2.2969,2.2967,2.2959,2.2951,2.2956,2.3013,2.297,2.297,2.2971,2.2971,2.2971,2.2738,2.2737,2.2756,2.2764,2.2776,2.2788,2.279,2.2808,2.2815,2.283,2.2846,2.2853,2.2871,2.2894,2.2905,2.2911,2.2922,2.2918,2.2917,2.2916,2.2913,2.2951,2.2914,2.2914,2.2914,2.2914,2.2915,0,2.2689,2.2703,2.271,2.2727,2.2734,2.2753,2.2769,2.2773,2.2779,2.2795,2.2804,2.2815,2.2826,2.2848,2.2861,2.2862,2.2872,2.2865,2.2865,2.2867,2.2903,2.2903,2.2857,2.2857,2.2857,2.2857,2.2857,2.2857,2.2664,2.2663,2.2678,2.2685,2.2699,2.2706,2.2714,2.2725,2.2738,2.2749,2.2758,2.2773,2.2792,2.2807,2.2818,2.2824,2.2828,2.2818,2.2827,2.2859,2.2865,2.287,2.2871,2.2818,2.2818,2.2792,2.2791,2.2791]},{"header":{"parameterUnit":"m.s-1","parameterCategory":1,"la1":30.2991,"la2":30.254,"lo1":-89.0895,"lo2":-89.0444,"dy":0.0017,"dx":0.0017,"nx":28,"ny":28,"refTime":"2025-04-11T03:00:00:Z","depth":0,"parameterNumber":3,"parameterNumberName":"V-component_of_WINDS"},"data":[0,0,0,0,0,0,0,0,0,0,0,0,0,0,0,0,0,0,0,0,0,0,0,0,0,0,0,0,0,0,0,0,0,0,0,0,0,0,0,0,0,0,0,0,0,0,0,0,0,0,0,0,0,0,0,0,0,0,-3.4432,-3.4432,0,-3.4383,-3.4383,-3.4382,-3.4417,-3.4419,-3.4421,-3.4422,-3.4365,-3.4362,-3.4359,0,0,0,0,0,0,0,0,0,0,0,0,0,-3.4551,-3.4549,-3.4432,-3.4432,-3.4431,-3.4383,-3.4383,-3.4382,-3.4417,-3.4419,-3.4421,-3.4423,-3.4366,-3.4362,-3.4359,0,0,0,0,0,0,0,0,0,0,0,0,0,-3.45,-3.4548,-3.4432,-3.4443,-3.4443,-3.4384,-3.4383,-3.4382,-3.4417,-3.4419,-3.4422,-3.4424,-3.4367,-3.4363,-3.4358,-3.4283,0,0,-3.4345,-3.4343,0,0,0,0,0,0,0,0,-3.4503,-3.4496,-3.4442,-3.4442,-3.4443,-3.4409,-3.4404,-3.4348,-3.4416,-3.4427,-3.4422,-3.4425,-3.4377,-3.4372,-3.4357,-3.428,-3.4278,-3.4344,-3.4341,-3.434,-3.4338,0,0,0,0,0,0,0,-3.4507,-3.4498,-3.4413,-3.4441,-3.4441,-3.4449,-3.4444,-3.4393,-3.4389,-3.4426,-3.4428,-3.4423,-3.4378,-3.4362,-3.4356,-3.4277,-3.4344,-3.434,-3.4338,-3.4336,-3.4138,-3.4136,0,0,0,0,0,0,-3.451,-3.4501,-3.4414,-3.4411,-3.448,-3.4445,-3.4439,-3.4417,-3.439,-3.4388,-3.4421,-3.4424,-3.4368,-3.4362,-3.4354,-3.4266,-3.434,-3.4335,-3.4333,-3.4141,-3.4137,-3.4135,0,0,0,0,0,0,-3.4512,-3.4502,-3.4416,-3.4457,-3.4446,-3.444,-3.4415,-3.4415,-3.4399,-3.4386,-3.4385,-3.4405,-3.437,-3.4361,-3.4302,-3.4264,-3.4333,-3.4329,-3.4144,-3.414,-3.4136,-3.4087,0,0,0,0,0,0,-3.4516,-3.4503,-3.4475,-3.4456,-3.4444,-3.4365,-3.4413,-3.4412,-3.4392,-3.4397,-3.4371,-3.4369,-3.4371,-3.4308,-3.4297,-3.4259,-3.4326,-3.4147,-3.4142,-3.4137,-3.4092,-3.4082,-3.4074,0,0,0,0,0,-3.452,-3.4461,-3.4473,-3.4462,-3.441,-3.4363,-3.4356,-3.4362,-3.4389,-3.436,-3.4352,-3.437,-3.4271,-3.4302,-3.429,-3.425,-3.4149,-3.4143,-3.4138,-3.4096,-3.4084,-3.4074,0,0,0,0,0,0,-3.4472,-3.4458,-3.4472,-3.4406,-3.4386,-3.4369,-3.4333,-3.4348,-3.4318,-3.4323,-3.4329,-3.4323,-3.4262,-3.425,-3.4285,-3.4177,-3.4214,-3.4206,-3.4187,-3.4175,-3.4166,-3.417,-3.4322,0,0,0,0,0,-3.4454,-3.442,-3.4409,-3.4351,-3.4341,-3.4339,-3.4319,-3.4325,-3.4304,-3.4295,-3.4282,-3.4259,-3.4223,-3.4198,-3.4164,-3.4091,-3.4086,-3.4058,-3.4049,-3.4042,-3.4034,-3.3996,-3.3983,-3.4116,-3.4116,-3.4116,0,0,-3.4416,-3.4405,-3.4381,-3.4341,-3.4327,-3.4289,-3.4331,-3.4289,-3.4261,-3.4287,-3.4232,-3.4222,-3.4196,-3.4131,-3.4101,-3.4119,-3.3997,-3.4034,-3.4028,-3.4024,-3.3989,-3.3976,-3.3965,-3.4112,-3.4113,-3.4113,0,0,-3.4328,-3.4316,-3.4267,-3.4253,-3.4232,-3.4231,-3.422,-3.4202,-3.4197,-3.4142,-3.4162,-3.4128,-3.4065,-3.4047,-3.4029,-3.3938,-3.3953,-3.3926,-3.3877,-3.384,-3.383,-3.3821,-3.3789,-3.3777,-3.3919,-3.3919,-3.3918,0,-3.4282,-3.4229,-3.424,-3.4198,-3.418,-3.4205,-3.4156,-3.4141,-3.4108,-3.4094,-3.4116,-3.404,-3.4024,-3.3955,-3.3934,-3.3918,-3.3905,-3.3928,-3.3831,-3.3822,-3.3813,-3.3783,-3.3771,-3.3916,-3.3916,-3.3916,-3.3916,0,-3.4174,-3.4137,-3.41,-3.4072,-3.405,-3.4004,-3.4007,-3.3983,-3.3993,-3.399,-3.3934,-3.3917,-3.3881,-3.3865,-3.3872,-3.3797,-3.381,-3.3831,-3.3868,-3.3798,-3.3769,-3.3757,-3.3911,-3.3912,-3.3913,-3.3914,0,0,-3.4051,-3.4033,-3.4019,-3.4008,-3.3988,-3.3958,-3.3914,-3.3882,-3.3861,-3.3839,-3.3801,-3.375,-3.3771,-3.3751,-3.3756,-3.3724,-3.3654,-3.3749,-3.3749,-3.3732,-3.3571,-3.3555,-3.3542,-3.3664,-3.3662,-3.366,-3.3574,0,-3.3963,-3.3888,-3.3899,-3.3826,-3.3792,-3.3818,-3.378,-3.3763,-3.3759,-3.3729,-3.3724,-3.3688,-3.3718,-3.3707,-3.3676,-3.3669,-3.3621,-3.3675,-3.3628,-3.3627,-3.3634,-3.3527,-3.3509,-3.3428,-3.3562,-3.3561,-3.3559,0,-3.3848,-3.3825,-3.3751,-3.3739,-3.3725,-3.369,-3.3663,-3.3634,-3.3615,-3.3615,-3.3595,-3.3607,-3.3562,-3.3602,-3.354,-3.3576,-3.3558,-3.3552,-3.3549,-3.3544,-3.3588,-3.3518,-3.3402,-3.3389,-3.3542,-3.3543,-3.3544,0,-3.3767,-3.3717,-3.3667,-3.3656,-3.364,-3.3616,-3.3608,-3.3592,-3.3573,-3.3548,-3.3536,-3.3505,-3.3488,-3.3464,-3.3467,-3.3495,-3.3404,-3.3443,-3.3402,-3.3402,-3.338,-3.3381,-3.3259,-3.3369,-3.3369,-3.3369,-3.337,0,-3.3666,-3.3619,-3.3631,-3.3599,-3.3548,-3.3561,-3.3509,-3.3504,-3.349,-3.3458,-3.3477,-3.3446,-3.3453,-3.3421,-3.3424,-3.3372,-3.3364,-3.3362,-3.3363,-3.336,-3.3361,-3.3348,-3.3353,-3.3366,-3.3367,-3.3368,-3.3368,0,-3.3566,-3.3571,-3.3518,-3.351,-3.3507,-3.3469,-3.3461,-3.3431,-3.3431,-3.339,-3.3381,-3.338,-3.3344,-3.3346,-3.3305,-3.3306,-3.3243,-3.3251,-3.325,-3.3252,-3.3211,-3.3214,-3.3075,-3.3057,-3.3179,-3.3178,-3.3177,0,-3.3501,-3.3466,-3.3455,-3.3437,-3.3428,-3.3397,-3.3379,-3.339,-3.3369,-3.3348,-3.3321,-3.3288,-3.3262,-3.3204,-3.3198,-3.3167,-3.3174,-3.3127,-3.3169,-3.3168,-3.3174,-3.3176,-3.3172,-3.3118,-3.3117,-3.3116,-3.3115,0,-3.3385,-3.3391,-3.3365,-3.3341,-3.332,-3.33,-3.3282,-3.3266,-3.3275,-3.3251,-3.3217,-3.3197,-3.3158,-3.3125,-3.3096,-3.3086,-3.3101,-3.3103,-3.3091,-3.3088,-3.3089,-3.3088,-3.3228,-3.3105,-3.3106,-3.3107,-3.3107,-3.3108,-3.33,-3.3272,-3.3261,-3.3232,-3.3221,-3.3205,-3.3178,-3.3176,-3.3149,-3.3119,-3.3127,-3.3088,-3.3072,-3.3036,-3.3024,-3.2993,-3.3009,-3.2993,-3.2989,-3.2984,-3.298,-3.3095,-3.2987,-3.2988,-3.2988,-3.2988,-3.2988,0,-3.3186,-3.3181,-3.3155,-3.3132,-3.311,-3.3131,-3.3113,-3.3092,-3.3059,-3.3044,-3.302,-3.2981,-3.295,-3.2944,-3.2914,-3.289,-3.2897,-3.2882,-3.2884,-3.2881,-3.2967,-3.298,-3.2878,-3.2878,-3.2878,-3.2878,-3.2878,-3.2878,-3.3124,-3.3078,-3.3082,-3.3031,-3.3026,-3.2991,-3.2979,-3.2964,-3.2953,-3.291,-3.2886,-3.2883,-3.2871,-3.2842,-3.2814,-3.2813,-3.2801,-3.2783,-3.2784,-3.2864,-3.2875,-3.2885,-3.2898,-3.278,-3.278,-3.2702,-3.2701,-3.27]}]]